Weather History for Millington, TN

Change the Weather History Date:

Monday, June 9, 2014

  Actual Average Record
Temperature  
Mean Temperature 74 °F -  
Max Temperature 82 °F 84 °F 96 °F (2006)
Min Temperature 66 °F 67 °F 62 °F (2006)
Cooling Degree Days 9    
Growing Degree Days 24 (Base 50)    
Moisture  
Dew Point 69 °F    
Average Humidity 93    
Maximum Humidity 100    
Minimum Humidity 70    
Precipitation  
Precipitation 0.00 in - - ()
Sea Level Pressure  
Sea Level Pressure 29.82 in    
Wind  
Wind Speed 8 mph (SE)    
Max Wind Speed 24 mph    
Max Gust Speed -    
Visibility 8 miles    
Events Rain    
Averages and records for this station are not official NWS values.
T = Trace of Precipitation, MM = Missing Value Source: NWS Daily Summary

Daily Weather History Graph

Daily Weather History Graph

Search for Another Location

Airport:

Trip Planner

Search our weather history database for the weather conditions in past years. The results will help you decide how hot, cold, wet, or windy it might be!

Date:

Astronomy

Jun. 09, 2014 Rise Set
Actual Time 5:44 AM CDT 8:13 PM CDT
Civil Twilight 5:14 AM CDT 8:43 PM CDT
Nautical Twilight 4:37 AM CDT 9:20 PM CDT
Astronomical Twilight 3:57 AM CDT 10:00 PM CDT
Moon 4:41 PM CDT (6/9) 3:03 AM CDT (6/9)
Length of Visible Light 15h 28m
Length of Day
14h 29m
Waxing Gibbous, 85% of the Moon is Illuminated
Jun 9
Waxing Gibbous
Jun 12
Full
Jun 19
Last Quarter
Jun 27
New
Jul 5
First Quarter

Hourly Weather History & Observations

Time (CDT) Temp. Heat Index Dew Point Humidity Pressure Visibility Wind Dir Wind Speed Gust Speed Precip Events Conditions
2:15 AM 68.0 °F - 68.0 °F 100% 29.89 in 1.0 mi ENE 11.5 mph - N/A   Overcast
2:35 AM 68.0 °F - 68.0 °F 100% 29.87 in 4.0 mi ENE 11.5 mph - N/A   Overcast
2:55 AM 68.0 °F - 68.0 °F 100% 29.85 in 5.0 mi ENE 10.4 mph - N/A   Mostly Cloudy
3:15 AM 68.0 °F - 66.2 °F 94% 29.82 in 5.0 mi ENE 11.5 mph - N/A   Overcast
3:35 AM 66.2 °F - 66.2 °F 100% 29.81 in 8.0 mi Variable 5.8 mph - N/A   Mostly Cloudy
3:55 AM 66.2 °F - 66.2 °F 100% 29.81 in 10.0 mi NE 5.8 mph - N/A   Partly Cloudy
4:15 AM 66.2 °F - 66.2 °F 100% 29.83 in 10.0 mi Variable 3.5 mph - N/A   Mostly Cloudy
4:35 AM 66.2 °F - 66.2 °F 100% 29.83 in 10.0 mi Variable 3.5 mph - N/A   Overcast
4:55 AM 66.2 °F - 66.2 °F 100% 29.85 in 10.0 mi SE 6.9 mph - N/A   Overcast
8:55 AM 69.8 °F - 66.2 °F 88% 29.88 in 10.0 mi SE 5.8 mph - N/A   Overcast
9:50 AM 69.8 °F - 62.6 °F 78% 29.88 in 10.0 mi ESE 6.9 mph - N/A   Overcast
10:50 AM 73.4 °F - 69.8 °F 88% 29.87 in 10.0 mi Calm Calm - N/A   Overcast
12:50 PM 78.8 °F - 71.6 °F 78% 29.84 in 10.0 mi South 5.8 mph - N/A   Mostly Cloudy
1:50 PM 82.4 °F 87.2 °F 71.6 °F 70% 29.81 in 10.0 mi Variable 5.8 mph - N/A   Mostly Cloudy
3:50 PM 82.4 °F 88.2 °F 73.4 °F 74% 29.78 in 10.0 mi SSE 5.8 mph - N/A   Mostly Cloudy
4:50 PM 80.6 °F 85.4 °F 73.4 °F 79% 29.77 in 10.0 mi SSW 3.5 mph - N/A Rain Light Rain
5:05 PM 71.6 °F - 69.8 °F 94% 29.81 in 2.0 mi WSW 24.2 mph - N/A Rain Light Rain
5:50 PM 69.8 °F - 69.8 °F 100% 29.79 in 4.0 mi Variable 6.9 mph - N/A Rain Light Rain
6:50 PM 69.8 °F - 69.8 °F 100% 29.79 in 10.0 mi SSE 6.9 mph - N/A Rain Light Rain
7:50 PM 69.8 °F - 69.8 °F 100% 29.75 in 10.0 mi SE 6.9 mph - N/A   Overcast
8:50 PM 69.8 °F - 69.8 °F 100% 29.77 in 10.0 mi Calm Calm - N/A   Mostly Cloudy
9:50 PM 69.8 °F - 69.8 °F 100% 29.78 in 10.0 mi SE 4.6 mph - N/A   Mostly Cloudy
10:50 PM 69.8 °F - 69.8 °F 100% 29.78 in 10.0 mi SSE 4.6 mph - N/A   Scattered Clouds
11:50 PM 69.8 °F - 69.8 °F 100% 29.79 in 10.0 mi SE 4.6 mph - N/A   Mostly Cloudy